Weather in Chernavka

Russia / Tambov Oblast     52°10′22″N   42°25′34″E
temp.,
°C
wind,
m/s
gust,
m/s
humid.,
%
clouds,
%
prec.,
mm/h
press.,
hPa
HPBL,
m
26 february, fri
fri2600:00+1wnw41097100 0.0 1015335
03:00+1nw3797100 0.0 1015239
06:00+1w249899 0.0 1015123
09:00+1sw3710099 0.1 1013160
12:00+2wsw510100100 0.6 1012195
15:00+2wsw514100100 1.4 1010412
18:00+2w71599100 0.4 1008424
21:00+2w71599100 0.4 1007457
27 february, sat
sat2700:00+2w51392100 0.1 1006515
03:00+1w61491100 0.1 1006477
06:00+1w61390100 0.0 1005533
09:00+1w71296100 0.1 1004668
12:00+1w71395100 0.0 1004793
15:00+1w81495100 0.1 1004865
18:00−5nnw6128692 0.2 1006665
21:00−8nnw5119183 0.2 1009588
28 february, sun
sun2800:00−10nnw4109380 0.0 1010453
03:00−11nw499268 0.0 1013373
06:00−11nnw499270 0.0 1014458
09:00−11nnw489080 0.0 1015448
12:00−10nnw468883 0.0 1016493
15:00−9nnw358788 0.0 1016532
18:00−9nnw2394100 0.0 101793
21:00−10nnw249497 0.1 1019113
1 march, mon
mon100:00−12n229563 0.0 102130
03:00−13n239332 0.0 102233
06:00−13n23940 0.0 102338
09:00−12n24920 0.0 1026210
12:00−10nnw238550 0.0 1026379
15:00−8nw248769 0.0 1027406
18:00−9wsw239593 0.0 102640
21:00−10wsw339560 0.0 102651
2 march, tue
tue200:00−7wsw499686 0.0 1024266
03:00−5wsw6129493 0.1 1020380
06:00−3wsw61394100 0.2 1017479
09:00−1w6129799 0.6 1015493
12:000wnw61199100 0.4 1014659
15:000wnw61198100 0.5 1012610
18:000nw61296100 0.2 1012668
21:00−2nw5139185 0.3 1013351